Flag for U.S.A. Weather past 2 weeks in Topeka, Kansas, U.S.A.

Now
90 °F

Passing clouds.


Feels Like: 95 °F
Forecast: 70 / 92 °F
Wind: 5 mph from Southwest

Location: Philip Billard Municipal Airport

Current Time: Aug 1, 2015 at 4:17:48 PM

Latest Report: Aug 1, 2015 at 2:53 PM


Visibility: 10 mi

Pressure: 29.97 "Hg

Humidity: 52%

Dew point: 70 °F

Location of TopekaLocation

Historic Weather in Topeka — Graph

°F

Topeka temperature yesterday

Maximum temperature yesterday: 90 °F (at 6:53 PM)
Minimum temperature yesterday: 62 °F (at 4:53 AM)
Average temperature yesterday: 78 °F

Past Weeks' High & Low Weather Summary

 TemperatureHumidityPressure
High100 °F (Jul 24, 4:53 PM)100% (Jul 29, 4:53 AM)30.21 "Hg (Jul 29, 4:53 AM)
Low62 °F (Jul 31, 4:53 AM)39% (Jul 30, 2:53 PM)29.74 "Hg (Jul 17, 5:53 PM)
Average81 °F75%29.93 "Hg
* Reported Jul 17 2:53 PM — Aug 1 2:53 PM, Topeka, Weather by CustomWeather, © 2015

Note: Actual official high and low records may vary slightly from our data, if they occured in-between our weather recording intervals... More about our weather records

Advertising

Topeka weather history for previous 24 hours

 ConditionsComfort  
Time TempWeatherWind HumidityBarometerVisibility
2:53 PM
Sat, Aug 1
90 °FPassing clouds.5 mph52%29.97 "Hg10 mi
1:53 PM88 °FSunny.8 mph52%29.99 "Hg10 mi
12:53 PM89 °FSunny.8 mph53%30.01 "Hg10 mi
11:53 AM89 °FPassing clouds.6 mph59%30.03 "Hg10 mi
10:53 AM85 °FSunny.3 mph70%30.04 "Hg10 mi
9:53 AM82 °FSunny.5 mph74%30.05 "Hg10 mi
8:53 AM80 °FSunny.5 mph79%30.04 "Hg10 mi
7:53 AM75 °FSunny.No wind88%30.03 "Hg10 mi
6:53 AM71 °FClear.No wind90%30.02 "Hg10 mi
5:53 AM72 °FClear.No wind87%30.02 "Hg10 mi
4:53 AM71 °FClear.No wind90%30.01 "Hg10 mi
3:53 AM72 °FClear.No wind87%30.01 "Hg10 mi
2:53 AM73 °FClear.No wind94%30.03 "Hg10 mi
1:53 AM73 °FClear.No wind97%30.03 "Hg10 mi
12:53 AM75 °FClear.No wind90%30.04 "Hg10 mi
11:53 PM
Fri, Jul 31
76 °FClear.No wind91%30.04 "Hg10 mi
10:53 PM76 °FClear.No wind94%30.04 "Hg10 mi
9:53 PM79 °FClear.No wind79%30.04 "Hg10 mi
8:53 PM82 °FSunny.No wind72%30.01 "Hg10 mi
7:53 PM87 °FSunny.5 mph55%30.02 "Hg10 mi
6:53 PM90 °FSunny.3 mph47%30.02 "Hg10 mi
5:53 PM89 °FSunny.3 mph45%30.03 "Hg10 mi
4:53 PM89 °FSunny.3 mph46%30.05 "Hg10 mi
Weather by CustomWeather, © 2015

See weather overviewHow to use our weather pages